[[{"header":{"parameterUnit":"m.s-1","parameterCategory":1,"la1":30.2991,"la2":30.254,"lo1":-89.0895,"lo2":-89.0444,"dy":0.0017,"dx":0.0017,"nx":28,"ny":28,"refTime":"2025-03-07T09:00:00:Z","depth":0,"parameterNumber":2,"parameterNumberName":"U-component_of_WINDS"},"data":[0,0,0,0,0,0,0,0,0,0,0,0,0,0,0,0,0,0,0,0,0,0,0,0,0,0,0,0,0,0,0,0,0,0,0,0,0,0,0,0,0,0,0,0,0,0,0,0,0,0,0,0,0,0,0,0,0,0,-0.8544,-0.8544,0,-0.8574,-0.8574,-0.8574,-0.8618,-0.8618,-0.8619,-0.862,-0.865,-0.865,-0.865,0,0,0,0,0,0,0,0,0,0,0,0,0,-0.8524,-0.8524,-0.8544,-0.8544,-0.8545,-0.8574,-0.8574,-0.8574,-0.8618,-0.8618,-0.8619,-0.862,-0.865,-0.865,-0.865,0,0,0,0,0,0,0,0,0,0,0,0,0,-0.8541,-0.8524,-0.8544,-0.857,-0.8572,-0.8574,-0.8574,-0.8575,-0.8617,-0.8618,-0.862,-0.8621,-0.865,-0.865,-0.865,-0.8628,0,0,-0.8651,-0.8651,0,0,0,0,0,0,0,0,-0.854,-0.8541,-0.8566,-0.8568,-0.8571,-0.8593,-0.8578,-0.8593,-0.8617,-0.86,-0.862,-0.8621,-0.863,-0.8632,-0.8635,-0.863,-0.8631,-0.8651,-0.8651,-0.8651,-0.8651,0,0,0,0,0,0,0,-0.8539,-0.854,-0.8556,-0.8566,-0.8569,-0.858,-0.8583,-0.8581,-0.8608,-0.8602,-0.8605,-0.8608,-0.8632,-0.8635,-0.8636,-0.8631,-0.8651,-0.8651,-0.8651,-0.8651,-0.8608,-0.8606,0,0,0,0,0,0,-0.8534,-0.8539,-0.8555,-0.8557,-0.8558,-0.8579,-0.8583,-0.8585,-0.8609,-0.8613,-0.8607,-0.861,-0.8634,-0.8636,-0.8637,-0.8611,-0.8651,-0.8651,-0.8651,-0.8609,-0.8607,-0.8606,0,0,0,0,0,0,-0.8533,-0.8535,-0.8554,-0.8549,-0.8552,-0.8578,-0.858,-0.8585,-0.8588,-0.8612,-0.8618,-0.8605,-0.8635,-0.8637,-0.863,-0.8613,-0.8651,-0.8651,-0.861,-0.8608,-0.8607,-0.856,0,0,0,0,0,0,-0.8532,-0.8534,-0.8526,-0.8548,-0.8552,-0.8546,-0.8579,-0.8585,-0.8588,-0.8592,-0.8612,-0.8616,-0.8636,-0.8629,-0.863,-0.8614,-0.8651,-0.8612,-0.8609,-0.8607,-0.8563,-0.8557,-0.8552,0,0,0,0,0,-0.8531,-0.8512,-0.8526,-0.8527,-0.8543,-0.8545,-0.8547,-0.857,-0.8587,-0.8578,-0.8594,-0.8616,-0.8615,-0.8628,-0.8629,-0.8613,-0.8613,-0.861,-0.8607,-0.8566,-0.8558,-0.8552,0,0,0,0,0,0,-0.8488,-0.8516,-0.8531,-0.8519,-0.8529,-0.8552,-0.8543,-0.8561,-0.8567,-0.8571,-0.8599,-0.8603,-0.8592,-0.8602,-0.8616,-0.8592,-0.8617,-0.8614,-0.8585,-0.8578,-0.8572,-0.8569,-0.8651,0,0,0,0,0,-0.8477,-0.8476,-0.8501,-0.8488,-0.8492,-0.8516,-0.8518,-0.8535,-0.8547,-0.8551,-0.8566,-0.8577,-0.8579,-0.858,-0.8583,-0.8566,-0.8569,-0.8555,-0.8549,-0.8544,-0.8541,-0.853,-0.8523,-0.8597,-0.8597,-0.8597,0,0,-0.8454,-0.8469,-0.8467,-0.8479,-0.8489,-0.8487,-0.852,-0.8517,-0.8515,-0.8551,-0.8544,-0.8556,-0.8569,-0.8556,-0.8551,-0.8564,-0.8522,-0.8541,-0.8537,-0.8536,-0.8527,-0.852,-0.8513,-0.8595,-0.8595,-0.8596,0,0,-0.8411,-0.8423,-0.8412,-0.8422,-0.8436,-0.8452,-0.845,-0.847,-0.8479,-0.8473,-0.8499,-0.8498,-0.8501,-0.8509,-0.8513,-0.8472,-0.8491,-0.8473,-0.8441,-0.8431,-0.8425,-0.842,-0.8403,-0.8397,-0.847,-0.847,-0.847,0,-0.838,-0.8378,-0.8405,-0.8399,-0.8403,-0.8435,-0.8424,-0.8432,-0.8447,-0.8448,-0.8463,-0.8467,-0.8478,-0.8466,-0.8456,-0.846,-0.8456,-0.847,-0.8424,-0.8419,-0.8415,-0.8399,-0.8392,-0.8467,-0.8468,-0.8468,-0.8468,0,-0.8339,-0.8337,-0.8327,-0.834,-0.8343,-0.8334,-0.8358,-0.8358,-0.8375,-0.8389,-0.8382,-0.8397,-0.8403,-0.8402,-0.8419,-0.8392,-0.8399,-0.8419,-0.8444,-0.8404,-0.839,-0.8384,-0.8464,-0.8465,-0.8465,-0.8466,0,0,-0.8268,-0.8295,-0.8291,-0.8296,-0.8314,-0.8313,-0.8306,-0.8312,-0.831,-0.832,-0.8313,-0.8315,-0.8332,-0.8337,-0.8355,-0.8346,-0.831,-0.8367,-0.8367,-0.8353,-0.8279,-0.8262,-0.8254,-0.8324,-0.8323,-0.8322,-0.8277,0,-0.8227,-0.8215,-0.8238,-0.8221,-0.8219,-0.825,-0.8243,-0.8253,-0.8267,-0.8266,-0.8281,-0.8281,-0.8305,-0.8308,-0.8301,-0.8316,-0.8295,-0.832,-0.8316,-0.8316,-0.8309,-0.8247,-0.823,-0.8186,-0.8271,-0.827,-0.827,0,-0.8176,-0.8182,-0.8165,-0.8182,-0.8182,-0.8176,-0.8182,-0.8182,-0.8194,-0.8204,-0.8209,-0.823,-0.8223,-0.8249,-0.8239,-0.8256,-0.8256,-0.8263,-0.8262,-0.826,-0.8288,-0.8241,-0.8173,-0.8166,-0.8261,-0.8262,-0.8263,0,-0.8123,-0.8127,-0.8116,-0.812,-0.8142,-0.8136,-0.8145,-0.8158,-0.8159,-0.8165,-0.8166,-0.8171,-0.8173,-0.8176,-0.8197,-0.8215,-0.8184,-0.8213,-0.8191,-0.819,-0.8181,-0.8181,-0.8109,-0.8185,-0.8185,-0.8186,-0.8186,0,-0.8073,-0.806,-0.8092,-0.8085,-0.8072,-0.8099,-0.8084,-0.8096,-0.8107,-0.8102,-0.8131,-0.8126,-0.8155,-0.8153,-0.817,-0.8158,-0.8159,-0.8166,-0.817,-0.8162,-0.8161,-0.8161,-0.8163,-0.8184,-0.8184,-0.8185,-0.8185,0,-0.801,-0.8031,-0.8021,-0.8042,-0.8047,-0.8036,-0.8053,-0.8047,-0.8063,-0.8056,-0.8057,-0.808,-0.8079,-0.8101,-0.8105,-0.8116,-0.8095,-0.8107,-0.8091,-0.8093,-0.8069,-0.807,-0.7993,-0.7983,-0.8068,-0.8067,-0.8067,0,-0.7975,-0.7966,-0.7985,-0.7984,-0.7991,-0.7989,-0.799,-0.8017,-0.8017,-0.8029,-0.8021,-0.8022,-0.8024,-0.8021,-0.8038,-0.8041,-0.805,-0.8023,-0.8051,-0.8042,-0.8046,-0.8045,-0.8044,-0.8016,-0.8015,-0.8014,-0.8014,0,-0.7909,-0.792,-0.7921,-0.7925,-0.7926,-0.7931,-0.7938,-0.7935,-0.7963,-0.7962,-0.7961,-0.7963,-0.7966,-0.7966,-0.7972,-0.798,-0.8,-0.8005,-0.8,-0.799,-0.798,-0.7982,-0.8072,-0.8006,-0.8007,-0.8008,-0.8008,-0.8008,-0.7858,-0.785,-0.7862,-0.7862,-0.787,-0.7875,-0.7869,-0.7884,-0.7884,-0.7888,-0.7904,-0.7899,-0.791,-0.792,-0.7926,-0.7923,-0.7936,-0.7929,-0.7927,-0.7924,-0.7918,-0.7983,-0.7925,-0.7925,-0.7925,-0.7925,-0.7925,0,-0.7791,-0.7801,-0.78,-0.7808,-0.7807,-0.7828,-0.7836,-0.7834,-0.783,-0.7838,-0.784,-0.7838,-0.7838,-0.7855,-0.7857,-0.7851,-0.786,-0.785,-0.7849,-0.785,-0.7908,-0.7911,-0.7842,-0.7842,-0.7842,-0.7842,-0.7842,-0.7842,-0.7757,-0.7744,-0.7756,-0.7747,-0.7757,-0.7753,-0.7755,-0.776,-0.7766,-0.7763,-0.7763,-0.7774,-0.7786,-0.7789,-0.7789,-0.7794,-0.7792,-0.7778,-0.7786,-0.7839,-0.7847,-0.7854,-0.7857,-0.7779,-0.7778,-0.7729,-0.7728,-0.7728]},{"header":{"parameterUnit":"m.s-1","parameterCategory":1,"la1":30.2991,"la2":30.254,"lo1":-89.0895,"lo2":-89.0444,"dy":0.0017,"dx":0.0017,"nx":28,"ny":28,"refTime":"2025-03-07T09:00:00:Z","depth":0,"parameterNumber":3,"parameterNumberName":"V-component_of_WINDS"},"data":[0,0,0,0,0,0,0,0,0,0,0,0,0,0,0,0,0,0,0,0,0,0,0,0,0,0,0,0,0,0,0,0,0,0,0,0,0,0,0,0,0,0,0,0,0,0,0,0,0,0,0,0,0,0,0,0,0,0,1.1287,1.1289,0,1.1415,1.1416,1.1418,1.1386,1.1384,1.1381,1.1379,1.1513,1.1518,1.1524,0,0,0,0,0,0,0,0,0,0,0,0,0,1.1022,1.1027,1.1287,1.1289,1.129,1.1415,1.1416,1.1418,1.1387,1.1384,1.138,1.1378,1.1511,1.1518,1.1525,0,0,0,0,0,0,0,0,0,0,0,0,0,1.1143,1.1029,1.1287,1.129,1.1291,1.1414,1.1416,1.1419,1.1387,1.1383,1.138,1.1376,1.1508,1.1517,1.1526,1.1655,0,0,1.1553,1.1556,0,0,0,0,0,0,0,0,1.1136,1.1152,1.1288,1.129,1.1292,1.1381,1.1372,1.1498,1.1388,1.1351,1.1379,1.1374,1.1472,1.1484,1.1516,1.1661,1.1667,1.1553,1.1559,1.1563,1.1565,0,0,0,0,0,0,0,1.1127,1.1147,1.1338,1.129,1.1292,1.1286,1.1299,1.1396,1.1431,1.1354,1.1352,1.1367,1.1472,1.1507,1.1519,1.1669,1.1553,1.1561,1.1566,1.157,1.1932,1.1936,0,0,0,0,0,0,1.1117,1.114,1.1334,1.1342,1.1203,1.1294,1.1309,1.1356,1.143,1.1437,1.137,1.1365,1.1494,1.1508,1.1523,1.1683,1.1562,1.1571,1.1576,1.1928,1.1933,1.1938,0,0,0,0,0,0,1.1111,1.1134,1.1329,1.124,1.1265,1.1303,1.1356,1.136,1.1395,1.1442,1.1449,1.1399,1.1492,1.1511,1.1623,1.1687,1.1575,1.1583,1.1923,1.193,1.1936,1.2002,0,0,0,0,0,0,1.1104,1.1133,1.1181,1.1242,1.1269,1.1425,1.136,1.1366,1.141,1.1405,1.1471,1.1478,1.149,1.161,1.1632,1.1697,1.159,1.1917,1.1926,1.1934,1.1994,1.201,1.2023,0,0,0,0,0,1.1094,1.1194,1.1183,1.1207,1.133,1.1429,1.1445,1.1455,1.1415,1.1465,1.1496,1.1476,1.1676,1.1622,1.1646,1.1715,1.1913,1.1923,1.1933,1.1988,1.2007,1.2023,0,0,0,0,0,0,1.1139,1.1202,1.1191,1.1312,1.1366,1.1423,1.1486,1.1475,1.1541,1.1533,1.1545,1.156,1.1676,1.1706,1.1645,1.1847,1.1789,1.1804,1.1823,1.1841,1.1856,1.1847,1.1597,0,0,0,0,0,1.1163,1.1237,1.1288,1.139,1.1418,1.1448,1.1491,1.1495,1.1551,1.1573,1.1612,1.1668,1.1745,1.1794,1.1866,1.1998,1.2014,1.2058,1.2072,1.2084,1.2098,1.2174,1.2195,1.197,1.197,1.197,0,0,1.1214,1.1257,1.1303,1.1401,1.1442,1.1521,1.1467,1.1551,1.161,1.1586,1.1696,1.1727,1.1791,1.1915,1.1971,1.1944,1.2163,1.2096,1.2105,1.2113,1.2186,1.2208,1.2227,1.1977,1.1975,1.1974,0,0,1.1347,1.1385,1.1477,1.152,1.1584,1.1604,1.1626,1.1687,1.1706,1.1816,1.1801,1.1873,1.2002,1.2049,1.209,1.2245,1.2231,1.2268,1.2345,1.242,1.2438,1.2453,1.2513,1.2533,1.2281,1.2282,1.2282,0,1.1402,1.1518,1.1525,1.1613,1.1658,1.164,1.1735,1.1777,1.1862,1.1895,1.1862,1.2027,1.2069,1.2206,1.2244,1.2276,1.2305,1.2262,1.2434,1.245,1.2465,1.2522,1.2543,1.2286,1.2285,1.2285,1.2285,0,1.1584,1.1665,1.1732,1.1815,1.1868,1.1958,1.1982,1.2035,1.2035,1.2059,1.2174,1.2223,1.2307,1.2339,1.2339,1.2478,1.246,1.243,1.2373,1.2491,1.2544,1.2566,1.2292,1.2291,1.2289,1.2288,0,0,1.1748,1.1836,1.1861,1.19,1.1971,1.2035,1.2126,1.2208,1.2255,1.2315,1.2394,1.2505,1.248,1.2527,1.2533,1.2598,1.2723,1.2562,1.2564,1.2593,1.2883,1.2907,1.2932,1.2713,1.2717,1.272,1.2879,0,1.189,1.205,1.2061,1.2207,1.2284,1.227,1.235,1.2404,1.2429,1.2501,1.2529,1.261,1.2568,1.2597,1.266,1.2694,1.2782,1.2682,1.279,1.2794,1.2778,1.2959,1.2983,1.3131,1.29,1.2903,1.2906,0,1.2076,1.2143,1.2296,1.236,1.2393,1.2464,1.2543,1.2609,1.2672,1.2686,1.274,1.2738,1.2835,1.2773,1.2909,1.2841,1.2886,1.291,1.2916,1.2929,1.2859,1.298,1.3178,1.3201,1.2938,1.2936,1.2933,0,1.2185,1.2313,1.2422,1.2456,1.2532,1.2583,1.2618,1.2676,1.2726,1.2794,1.2828,1.2906,1.2951,1.3013,1.3034,1.2986,1.3171,1.3109,1.3188,1.3188,1.323,1.3227,1.3441,1.3254,1.3253,1.3253,1.3252,0,1.2344,1.2439,1.2473,1.254,1.2648,1.2661,1.2768,1.28,1.2853,1.2928,1.292,1.2991,1.3013,1.3089,1.3106,1.3218,1.3237,1.3254,1.3258,1.3257,1.3255,1.3288,1.328,1.3259,1.3257,1.3256,1.3255,0,1.2484,1.251,1.2629,1.2692,1.271,1.2787,1.2842,1.2909,1.2934,1.303,1.3054,1.3094,1.3183,1.3209,1.3317,1.3328,1.3462,1.3454,1.3441,1.3442,1.3521,1.3515,1.3766,1.3801,1.3587,1.3589,1.3591,0,1.2585,1.2659,1.273,1.278,1.2817,1.2897,1.2948,1.2965,1.302,1.3098,1.3156,1.3245,1.3316,1.3461,1.3501,1.3584,1.3581,1.3663,1.3594,1.3592,1.3587,1.3584,1.3593,1.3677,1.368,1.3681,1.3683,0,1.2763,1.2773,1.2846,1.2927,1.2988,1.3052,1.3113,1.3155,1.3181,1.3243,1.3335,1.339,1.3501,1.3591,1.3676,1.3713,1.3705,1.3704,1.3728,1.3729,1.3719,1.3729,1.348,1.3699,1.3697,1.3696,1.3695,1.3695,1.2889,1.2955,1.3017,1.3101,1.3149,1.3207,1.3274,1.3309,1.3385,1.3476,1.3482,1.3583,1.3647,1.376,1.3803,1.3883,1.3859,1.3892,1.3901,1.391,1.3918,1.3704,1.3898,1.3898,1.3897,1.3897,1.3897,0,1.307,1.3109,1.3186,1.3273,1.334,1.3324,1.3392,1.345,1.3538,1.3598,1.367,1.3778,1.3865,1.3913,1.4001,1.4056,1.4055,1.4079,1.4077,1.4087,1.3933,1.3905,1.408,1.408,1.4079,1.4079,1.4079,1.4079,1.3172,1.3284,1.3302,1.344,1.3479,1.3577,1.3618,1.3674,1.3722,1.3842,1.3915,1.3945,1.4002,1.4095,1.4176,1.4188,1.4222,1.425,1.426,1.4116,1.4097,1.4079,1.4054,1.4256,1.4257,1.4408,1.4409,1.441]}]]